Wetterdaten: aktuell Montag, 31.08.2026 14:40
Datum Zeit Temp. A. Feuchte A. Luftdruck Regen Wind Richtung Richtung Sonnenschein Solar Taupunkt Windchill Windböen
31.08.2026 14:40 24,3 °C 60 % 1015,3 hPa 0,0 l/m² 6,4 km/h W-NW 292 ° 5 min 809 W/m² 16,0 °C 24,3 °C 16,1 km/h
31.08.2026 14:35 23,9 °C 62 % 1015,2 hPa 0,0 l/m² 4,8 km/h W-NW 292 ° 5 min 823 W/m² 16,2 °C 23,9 °C 12,9 km/h
31.08.2026 14:30 23,7 °C 63 % 1015,2 hPa 0,0 l/m² 12,9 km/h W-NW 292 ° 5 min 756 W/m² 16,2 °C 22,1 °C 22,5 km/h
31.08.2026 14:25 23,4 °C 65 % 1015,3 hPa 0,0 l/m² 8,0 km/h W-NW 292 ° 5 min 810 W/m² 16,4 °C 22,9 °C 16,1 km/h
31.08.2026 14:20 23,8 °C 63 % 1015,3 hPa 0,0 l/m² 12,9 km/h W 270 ° 5 min 805 W/m² 16,3 °C 22,2 °C 24,1 km/h
31.08.2026 14:15 24,1 °C 62 % 1015,2 hPa 0,0 l/m² 4,8 km/h SW 225 ° 5 min 823 W/m² 16,4 °C 24,1 °C 12,9 km/h
31.08.2026 14:10 23,8 °C 61 % 1015,3 hPa 0,0 l/m² 8,0 km/h W 270 ° 5 min 786 W/m² 15,8 °C 23,3 °C 20,9 km/h
31.08.2026 14:05 23,7 °C 62 % 1015,3 hPa 0,0 l/m² 9,7 km/h W 270 ° 5 min 768 W/m² 16,0 °C 22,8 °C 24,1 km/h
31.08.2026 14:00 23,5 °C 61 % 1015,4 hPa 0,0 l/m² 9,7 km/h W 270 ° 5 min 759 W/m² 15,5 °C 22,6 °C 20,9 km/h
31.08.2026 13:55 23,2 °C 64 % 1015,4 hPa 0,0 l/m² 6,4 km/h S-SW 202 ° 5 min 766 W/m² 16,0 °C 23,2 °C 19,3 km/h
31.08.2026 13:50 23,1 °C 64 % 1015,4 hPa 0,0 l/m² 9,7 km/h SW 225 ° 5 min 786 W/m² 15,9 °C 22,1 °C 20,9 km/h
31.08.2026 13:45 23,2 °C 65 % 1015,5 hPa 0,0 l/m² 8,0 km/h W-NW 292 ° 5 min 796 W/m² 16,2 °C 22,7 °C 16,1 km/h
31.08.2026 13:40 22,8 °C 68 % 1015,5 hPa 0,0 l/m² 11,3 km/h W 270 ° 5 min 791 W/m² 16,6 °C 21,4 °C 22,5 km/h
31.08.2026 13:35 22,4 °C 69 % 1015,5 hPa 0,0 l/m² 8,0 km/h W 270 ° 5 min 870 W/m² 16,4 °C 21,9 °C 17,7 km/h
31.08.2026 13:30 21,7 °C 70 % 1015,5 hPa 0,0 l/m² 9,7 km/h W 270 ° 0 min 229 W/m² 16,0 °C 20,6 °C 16,1 km/h
31.08.2026 13:25 21,7 °C 71 % 1015,5 hPa 0,0 l/m² 8,0 km/h W 270 ° 0 min 313 W/m² 16,2 °C 21,1 °C 17,7 km/h
31.08.2026 13:20 22,1 °C 69 % 1015,5 hPa 0,0 l/m² 8,0 km/h W 270 ° 0 min 232 W/m² 16,1 °C 21,6 °C 17,7 km/h
31.08.2026 13:15 22,7 °C 69 % 1015,5 hPa 0,0 l/m² 11,3 km/h W-NW 292 ° 5 min 904 W/m² 16,7 °C 21,3 °C 20,9 km/h
31.08.2026 13:10 22,9 °C 70 % 1015,5 hPa 0,0 l/m² 4,8 km/h O-NO 67 ° 5 min 888 W/m² 17,1 °C 22,9 °C 14,5 km/h
31.08.2026 13:05 22,9 °C 72 % 1015,6 hPa 0,0 l/m² 4,8 km/h S-SO 157 ° 5 min 853 W/m² 17,6 °C 22,9 °C 9,7 km/h
31.08.2026 13:00 22,1 °C 74 % 1015,7 hPa 0,0 l/m² 8,0 km/h W 270 ° 5 min 830 W/m² 17,2 °C 21,6 °C 17,7 km/h
31.08.2026 12:55 21,4 °C 76 % 1015,7 hPa 0,0 l/m² 8,0 km/h W-SW 247 ° 5 min 826 W/m² 17,0 °C 20,8 °C 17,7 km/h
31.08.2026 12:50 20,4 °C 77 % 1015,8 hPa 0,0 l/m² 6,4 km/h W-SW 247 ° 5 min 809 W/m² 16,2 °C 20,4 °C 14,5 km/h
31.08.2026 12:45 20,3 °C 77 % 1015,7 hPa 0,0 l/m² 6,4 km/h W 270 ° 0 min 105 W/m² 16,1 °C 20,3 °C 12,9 km/h
31.08.2026 12:40 20,9 °C 76 % 1015,7 hPa 0,0 l/m² 8,0 km/h W 270 ° 0 min 176 W/m² 16,5 °C 20,3 °C 14,5 km/h
31.08.2026 12:35 21,4 °C 75 % 1015,7 hPa 0,0 l/m² 6,4 km/h W 270 ° 5 min 911 W/m² 16,8 °C 21,4 °C 14,5 km/h
31.08.2026 12:30 21,0 °C 78 % 1015,8 hPa 0,0 l/m² 4,8 km/h NW 315 ° 5 min 904 W/m² 17,0 °C 21,0 °C 9,7 km/h
31.08.2026 12:25 21,0 °C 78 % 1015,7 hPa 0,0 l/m² 8,0 km/h SW 225 ° 0 min 385 W/m² 17,0 °C 20,4 °C 16,1 km/h
31.08.2026 12:20 21,3 °C 79 % 1015,7 hPa 0,0 l/m² 6,4 km/h W-NW 292 ° 5 min 949 W/m² 17,5 °C 21,3 °C 14,5 km/h
31.08.2026 12:15 20,9 °C 78 % 1015,8 hPa 0,0 l/m² 8,0 km/h W 270 ° 0 min 230 W/m² 16,9 °C 20,3 °C 16,1 km/h
31.08.2026 12:10 21,1 °C 80 % 1015,7 hPa 0,0 l/m² 8,0 km/h W 270 ° 5 min 916 W/m² 17,5 °C 20,5 °C 17,7 km/h
31.08.2026 12:05 21,3 °C 77 % 1015,7 hPa 0,0 l/m² 8,0 km/h W 270 ° 5 min 956 W/m² 17,1 °C 20,7 °C 16,1 km/h
31.08.2026 12:00 21,8 °C 80 % 1015,8 hPa 0,0 l/m² 8,0 km/h W 270 ° 5 min 926 W/m² 18,2 °C 21,2 °C 24,1 km/h
31.08.2026 11:55 21,7 °C 80 % 1015,8 hPa 0,0 l/m² 8,0 km/h W-NW 292 ° 5 min 970 W/m² 18,1 °C 21,1 °C 16,1 km/h
31.08.2026 11:50 21,1 °C 85 % 1015,8 hPa 0,0 l/m² 8,0 km/h W-NW 292 ° 5 min 860 W/m² 18,5 °C 20,5 °C 12,9 km/h
31.08.2026 11:45 20,7 °C 82 % 1015,8 hPa 0,0 l/m² 9,7 km/h W-NW 292 ° 0 min 262 W/m² 17,5 °C 19,5 °C 16,1 km/h
31.08.2026 11:40 20,7 °C 84 % 1015,7 hPa 0,0 l/m² 6,4 km/h W-NW 292 ° 5 min 717 W/m² 17,9 °C 20,7 °C 14,5 km/h
31.08.2026 11:35 20,6 °C 83 % 1015,8 hPa 0,0 l/m² 8,0 km/h W-NW 292 ° 5 min 860 W/m² 17,6 °C 20,0 °C 17,7 km/h
31.08.2026 11:30 20,3 °C 84 % 1015,8 hPa 0,0 l/m² 3,2 km/h W 270 ° 5 min 888 W/m² 17,5 °C 20,3 °C 11,3 km/h
31.08.2026 11:25 20,3 °C 86 % 1015,8 hPa 0,0 l/m² 8,0 km/h W 270 ° 5 min 865 W/m² 17,9 °C 19,7 °C 14,5 km/h
31.08.2026 11:20 20,3 °C 84 % 1015,8 hPa 0,0 l/m² 8,0 km/h W-SW 247 ° 5 min 466 W/m² 17,5 °C 19,7 °C 16,1 km/h
31.08.2026 11:15 20,7 °C 87 % 1015,8 hPa 0,0 l/m² 4,8 km/h W-NW 292 ° 5 min 851 W/m² 18,5 °C 20,7 °C 11,3 km/h
31.08.2026 11:10 20,2 °C 89 % 1015,7 hPa 0,0 l/m² 8,0 km/h W 270 ° 5 min 807 W/m² 18,3 °C 19,6 °C 19,3 km/h
31.08.2026 11:05 19,8 °C 90 % 1015,6 hPa 0,0 l/m² 6,4 km/h NW 315 ° 0 min 230 W/m² 18,1 °C 19,8 °C 9,7 km/h
31.08.2026 11:00 19,8 °C 91 % 1015,7 hPa 0,0 l/m² 6,4 km/h W-NW 292 ° 5 min 759 W/m² 18,3 °C 19,8 °C 12,9 km/h
31.08.2026 10:55 19,6 °C 92 % 1015,7 hPa 0,0 l/m² 6,4 km/h W-NW 292 ° 5 min 744 W/m² 18,3 °C 19,6 °C 12,9 km/h
31.08.2026 10:50 19,2 °C 93 % 1015,7 hPa 0,0 l/m² 3,2 km/h NW 315 ° 5 min 780 W/m² 18,0 °C 19,2 °C 11,3 km/h
31.08.2026 10:45 18,7 °C 94 % 1015,8 hPa 0,0 l/m² 8,0 km/h W-NW 292 ° 0 min 163 W/m² 17,7 °C 18,0 °C 14,5 km/h
31.08.2026 10:40 19,0 °C 94 % 1015,9 hPa 0,0 l/m² 4,8 km/h NW 315 ° 0 min 251 W/m² 18,0 °C 19,0 °C 9,7 km/h
31.08.2026 10:35 18,9 °C 96 % 1015,8 hPa 0,0 l/m² 3,2 km/h W-NW 292 ° 5 min 791 W/m² 18,2 °C 18,9 °C 6,4 km/h
31.08.2026 10:30 18,6 °C 98 % 1015,9 hPa 0,0 l/m² 3,2 km/h W-NW 292 ° 0 min 336 W/m² 18,3 °C 18,6 °C 6,4 km/h
31.08.2026 10:25 18,1 °C 98 % 1015,8 hPa 0,0 l/m² 3,2 km/h W-NW 292 ° 0 min 283 W/m² 17,8 °C 18,1 °C 11,3 km/h
31.08.2026 10:20 17,8 °C 97 % 1015,8 hPa 0,0 l/m² 1,6 km/h W-NW 292 ° 0 min 241 W/m² 17,3 °C 17,8 °C 8,0 km/h
31.08.2026 10:15 17,7 °C 98 % 1015,8 hPa 0,2 l/m² 1,6 km/h W-SW 247 ° 0 min 146 W/m² 17,4 °C 17,7 °C 4,8 km/h
31.08.2026 10:10 17,7 °C 97 % 1015,7 hPa 0,0 l/m² 4,8 km/h W-SW 247 ° 0 min 90 W/m² 17,2 °C 17,7 °C 8,0 km/h
31.08.2026 10:05 17,7 °C 97 % 1015,7 hPa 0,0 l/m² 1,6 km/h S-SO 157 ° 0 min 69 W/m² 17,2 °C 17,7 °C 6,4 km/h
31.08.2026 10:00 17,7 °C 97 % 1015,6 hPa 0,0 l/m² 1,6 km/h S-SO 157 ° 0 min 76 W/m² 17,2 °C 17,7 °C 4,8 km/h
31.08.2026 09:55 17,7 °C 98 % 1015,4 hPa 0,0 l/m² 1,6 km/h SO 135 ° 0 min 69 W/m² 17,4 °C 17,7 °C 3,2 km/h
31.08.2026 09:50 17,7 °C 98 % 1015,4 hPa 0,0 l/m² 0,0 km/h SO 135 ° 0 min 174 W/m² 17,4 °C 17,7 °C 3,2 km/h
31.08.2026 09:45 17,6 °C 98 % 1015,3 hPa 0,0 l/m² 0,0 km/h SO 135 ° 0 min 174 W/m² 17,3 °C 17,6 °C 3,2 km/h
31.08.2026 09:40 17,4 °C 98 % 1015,3 hPa 0,0 l/m² 0,0 km/h SO 135 ° 0 min 193 W/m² 17,1 °C 17,4 °C 1,6 km/h
31.08.2026 09:35 17,3 °C 97 % 1015,2 hPa 0,0 l/m² 0,0 km/h SO 135 ° 0 min 163 W/m² 16,8 °C 17,3 °C 1,6 km/h
31.08.2026 09:30 17,3 °C 97 % 1015,2 hPa 0,0 l/m² 0,0 km/h SO 135 ° 0 min 105 W/m² 16,8 °C 17,3 °C 3,2 km/h
31.08.2026 09:25 17,2 °C 97 % 1015,2 hPa 0,0 l/m² 1,6 km/h SO 135 ° 0 min 100 W/m² 16,7 °C 17,2 °C 4,8 km/h
31.08.2026 09:20 17,2 °C 97 % 1015,3 hPa 0,0 l/m² 0,0 km/h SO 135 ° 0 min 37 W/m² 16,7 °C 17,2 °C 3,2 km/h
31.08.2026 09:15 17,2 °C 97 % 1015,2 hPa 0,0 l/m² 0,0 km/h SO 135 ° 0 min 53 W/m² 16,7 °C 17,2 °C 1,6 km/h
31.08.2026 09:10 17,2 °C 97 % 1015,1 hPa 0,0 l/m² 1,6 km/h SO 135 ° 0 min 81 W/m² 16,7 °C 17,2 °C 4,8 km/h
31.08.2026 09:05 17,2 °C 97 % 1015,1 hPa 0,0 l/m² 1,6 km/h SO 135 ° 0 min 107 W/m² 16,7 °C 17,2 °C 4,8 km/h
31.08.2026 09:00 17,1 °C 97 % 1015,0 hPa 0,0 l/m² 3,2 km/h SO 135 ° 0 min 100 W/m² 16,6 °C 17,1 °C 4,8 km/h
31.08.2026 08:55 17,1 °C 97 % 1015,0 hPa 0,0 l/m² 1,6 km/h O-NO 67 ° 0 min 54 W/m² 16,6 °C 17,1 °C 4,8 km/h
31.08.2026 08:50 17,0 °C 97 % 1014,9 hPa 0,0 l/m² 0,0 km/h O-NO 67 ° 0 min 86 W/m² 16,5 °C 17,0 °C 1,6 km/h
31.08.2026 08:45 16,9 °C 97 % 1014,8 hPa 0,0 l/m² 0,0 km/h O-NO 67 ° 0 min 74 W/m² 16,4 °C 16,9 °C 3,2 km/h
31.08.2026 08:40 16,9 °C 97 % 1014,8 hPa 0,0 l/m² 1,6 km/h O-NO 67 ° 0 min 56 W/m² 16,4 °C 16,9 °C 3,2 km/h
31.08.2026 08:35 16,8 °C 97 % 1014,9 hPa 0,0 l/m² 0,0 km/h N 360 ° 0 min 39 W/m² 16,3 °C 16,8 °C 3,2 km/h
31.08.2026 08:30 16,8 °C 97 % 1014,8 hPa 0,0 l/m² 0,0 km/h N 360 ° 0 min 62 W/m² 16,3 °C 16,8 °C 1,6 km/h
31.08.2026 08:25 16,7 °C 96 % 1014,8 hPa 0,0 l/m² 0,0 km/h N 360 ° 0 min 40 W/m² 16,1 °C 16,7 °C 1,6 km/h
31.08.2026 08:20 16,7 °C 96 % 1014,8 hPa 0,0 l/m² 0,0 km/h N 0 ° 0 min 58 W/m² 16,1 °C 16,7 °C 0,0 km/h
31.08.2026 08:15 16,7 °C 96 % 1014,7 hPa 0,0 l/m² 0,0 km/h N 360 ° 0 min 30 W/m² 16,1 °C 16,7 °C 1,6 km/h
31.08.2026 08:10 16,7 °C 96 % 1014,7 hPa 0,0 l/m² 0,0 km/h N 0 ° 0 min 14 W/m² 16,1 °C 16,7 °C 0,0 km/h
31.08.2026 08:05 16,7 °C 96 % 1014,7 hPa 0,0 l/m² 0,0 km/h N 360 ° 0 min 23 W/m² 16,1 °C 16,7 °C 1,6 km/h
31.08.2026 08:00 16,7 °C 96 % 1014,6 hPa 0,0 l/m² 0,0 km/h N 360 ° 0 min 25 W/m² 16,1 °C 16,7 °C 3,2 km/h
31.08.2026 07:55 16,7 °C 96 % 1014,5 hPa 0,0 l/m² 1,6 km/h N 360 ° 0 min 26 W/m² 16,1 °C 16,7 °C 4,8 km/h
31.08.2026 07:50 16,6 °C 96 % 1014,5 hPa 0,0 l/m² 0,0 km/h N 360 ° 0 min 23 W/m² 16,0 °C 16,6 °C 4,8 km/h
31.08.2026 07:45 16,7 °C 95 % 1014,2 hPa 0,0 l/m² 1,6 km/h N 360 ° 0 min 23 W/m² 15,9 °C 16,7 °C 3,2 km/h
31.08.2026 07:40 16,7 °C 95 % 1014,1 hPa 0,0 l/m² 0,0 km/h N 360 ° 0 min 19 W/m² 15,9 °C 16,7 °C 1,6 km/h
31.08.2026 07:35 16,7 °C 95 % 1014,0 hPa 0,0 l/m² 0,0 km/h N 360 ° 0 min 23 W/m² 15,9 °C 16,7 °C 1,6 km/h
31.08.2026 07:30 16,7 °C 95 % 1014,1 hPa 0,0 l/m² 0,0 km/h N 0 ° 0 min 32 W/m² 15,9 °C 16,7 °C 0,0 km/h
31.08.2026 07:25 16,7 °C 95 % 1014,0 hPa 0,0 l/m² 0,0 km/h N 360 ° 0 min 32 W/m² 15,9 °C 16,7 °C 3,2 km/h
31.08.2026 07:20 16,7 °C 95 % 1013,8 hPa 0,0 l/m² 0,0 km/h N 360 ° 0 min 23 W/m² 15,9 °C 16,7 °C 3,2 km/h
31.08.2026 07:15 16,8 °C 94 % 1013,7 hPa 0,0 l/m² 0,0 km/h N 360 ° 0 min 9 W/m² 15,8 °C 16,8 °C 3,2 km/h
31.08.2026 07:10 16,8 °C 94 % 1013,6 hPa 0,0 l/m² 1,6 km/h N 360 ° 0 min 7 W/m² 15,8 °C 16,8 °C 3,2 km/h
31.08.2026 07:05 16,8 °C 94 % 1013,7 hPa 0,2 l/m² 1,6 km/h N 360 ° 0 min 5 W/m² 15,8 °C 16,8 °C 4,8 km/h
31.08.2026 07:00 16,9 °C 94 % 1013,7 hPa 0,0 l/m² 1,6 km/h N 360 ° 0 min 0 W/m² 15,9 °C 16,9 °C 4,8 km/h
31.08.2026 06:55 16,9 °C 93 % 1013,6 hPa 0,0 l/m² 4,8 km/h N-NW 337 ° 0 min 0 W/m² 15,8 °C 16,9 °C 8,0 km/h
31.08.2026 06:50 17,0 °C 93 % 1014,0 hPa 0,2 l/m² 0,0 km/h N-NW 337 ° 0 min 0 W/m² 15,9 °C 17,0 °C 3,2 km/h
31.08.2026 06:45 17,1 °C 93 % 1014,1 hPa 0,2 l/m² 1,6 km/h N-NW 337 ° 0 min 0 W/m² 16,0 °C 17,1 °C 3,2 km/h
31.08.2026 06:40 17,2 °C 92 % 1014,0 hPa 0,4 l/m² 1,6 km/h N-NW 337 ° 0 min 0 W/m² 15,9 °C 17,2 °C 6,4 km/h
31.08.2026 06:35 17,3 °C 92 % 1013,9 hPa 0,2 l/m² 3,2 km/h N-NW 337 ° 0 min 0 W/m² 16,0 °C 17,3 °C 6,4 km/h
31.08.2026 06:30 17,4 °C 92 % 1014,3 hPa 0,2 l/m² 3,2 km/h NW 315 ° 0 min 0 W/m² 16,1 °C 17,4 °C 6,4 km/h
31.08.2026 06:25 17,6 °C 91 % 1014,5 hPa 0,4 l/m² 3,2 km/h W 270 ° 0 min 0 W/m² 16,1 °C 17,6 °C 8,0 km/h
31.08.2026 06:20 17,8 °C 90 % 1014,6 hPa 0,8 l/m² 4,8 km/h W 270 ° 0 min 0 W/m² 16,1 °C 17,8 °C 12,9 km/h
31.08.2026 06:15 18,0 °C 90 % 1014,6 hPa 0,8 l/m² 3,2 km/h N-NO 22 ° 0 min 0 W/m² 16,3 °C 18,0 °C 17,7 km/h
31.08.2026 06:10 18,2 °C 89 % 1014,5 hPa 0,2 l/m² 6,4 km/h S-SW 202 ° 0 min 0 W/m² 16,4 °C 18,2 °C 16,1 km/h
31.08.2026 06:05 18,4 °C 88 % 1014,1 hPa 0,2 l/m² 11,3 km/h S-SW 202 ° 0 min 0 W/m² 16,4 °C 16,4 °C 19,3 km/h
31.08.2026 06:00 18,6 °C 86 % 1014,1 hPa 0,0 l/m² 9,7 km/h S-SW 202 ° 0 min 0 W/m² 16,2 °C 17,2 °C 20,9 km/h
31.08.2026 05:55 18,7 °C 86 % 1013,7 hPa 0,0 l/m² 8,0 km/h W-SW 247 ° 0 min 0 W/m² 16,3 °C 18,0 °C 16,1 km/h
31.08.2026 05:50 18,7 °C 85 % 1013,1 hPa 0,0 l/m² 3,2 km/h SO 135 ° 0 min 0 W/m² 16,1 °C 18,7 °C 8,0 km/h
31.08.2026 05:45 18,6 °C 86 % 1012,3 hPa 0,0 l/m² 4,8 km/h SO 135 ° 0 min 0 W/m² 16,2 °C 18,6 °C 11,3 km/h
31.08.2026 05:40 18,6 °C 86 % 1012,0 hPa 0,0 l/m² 4,8 km/h SO 135 ° 0 min 0 W/m² 16,2 °C 18,6 °C 9,7 km/h
31.08.2026 05:35 18,5 °C 86 % 1011,9 hPa 0,0 l/m² 8,0 km/h O-SO 112 ° 0 min 0 W/m² 16,1 °C 17,8 °C 14,5 km/h
31.08.2026 05:30 18,4 °C 87 % 1012,0 hPa 0,0 l/m² 8,0 km/h SO 135 ° 0 min 0 W/m² 16,2 °C 17,7 °C 16,1 km/h
31.08.2026 05:25 18,2 °C 87 % 1012,1 hPa 0,0 l/m² 6,4 km/h SO 135 ° 0 min 0 W/m² 16,0 °C 18,2 °C 12,9 km/h
31.08.2026 05:20 18,0 °C 88 % 1012,2 hPa 0,0 l/m² 4,8 km/h S-SO 157 ° 0 min 0 W/m² 16,0 °C 18,0 °C 14,5 km/h
31.08.2026 05:15 17,8 °C 88 % 1012,2 hPa 0,0 l/m² 4,8 km/h SO 135 ° 0 min 0 W/m² 15,8 °C 17,8 °C 12,9 km/h
31.08.2026 05:10 17,7 °C 89 % 1012,1 hPa 0,0 l/m² 6,4 km/h SO 135 ° 0 min 0 W/m² 15,9 °C 17,7 °C 12,9 km/h
31.08.2026 05:05 17,4 °C 89 % 1012,2 hPa 0,0 l/m² 3,2 km/h SO 135 ° 0 min 0 W/m² 15,6 °C 17,4 °C 12,9 km/h
31.08.2026 05:00 17,3 °C 90 % 1012,3 hPa 0,0 l/m² 4,8 km/h SO 135 ° 0 min 0 W/m² 15,6 °C 17,3 °C 14,5 km/h
31.08.2026 04:55 17,1 °C 89 % 1012,4 hPa 0,0 l/m² 3,2 km/h SO 135 ° 0 min 0 W/m² 15,3 °C 17,1 °C 8,0 km/h
31.08.2026 04:50 16,9 °C 89 % 1012,3 hPa 0,0 l/m² 3,2 km/h SO 135 ° 0 min 0 W/m² 15,1 °C 16,9 °C 14,5 km/h
31.08.2026 04:45 16,9 °C 89 % 1012,4 hPa 0,0 l/m² 0,0 km/h SO 135 ° 0 min 0 W/m² 15,1 °C 16,9 °C 6,4 km/h
31.08.2026 04:40 16,8 °C 89 % 1012,4 hPa 0,0 l/m² 0,0 km/h SO 135 ° 0 min 0 W/m² 15,0 °C 16,8 °C 3,2 km/h
31.08.2026 04:35 16,8 °C 89 % 1012,5 hPa 0,0 l/m² 0,0 km/h SO 135 ° 0 min 0 W/m² 15,0 °C 16,8 °C 3,2 km/h
31.08.2026 04:30 16,8 °C 89 % 1012,4 hPa 0,0 l/m² 0,0 km/h N 0 ° 0 min 0 W/m² 15,0 °C 16,8 °C 0,0 km/h
31.08.2026 04:25 16,9 °C 89 % 1012,5 hPa 0,0 l/m² 0,0 km/h N 0 ° 0 min 0 W/m² 15,1 °C 16,9 °C 0,0 km/h
31.08.2026 04:20 16,8 °C 90 % 1012,7 hPa 0,0 l/m² 0,0 km/h SO 135 ° 0 min 0 W/m² 15,1 °C 16,8 °C 3,2 km/h
31.08.2026 04:15 16,7 °C 90 % 1012,7 hPa 0,0 l/m² 1,6 km/h NO 45 ° 0 min 0 W/m² 15,0 °C 16,7 °C 6,4 km/h
31.08.2026 04:10 16,6 °C 90 % 1012,7 hPa 0,0 l/m² 0,0 km/h N-NO 22 ° 0 min 0 W/m² 15,0 °C 16,6 °C 1,6 km/h
31.08.2026 04:05 16,6 °C 90 % 1012,7 hPa 0,0 l/m² 0,0 km/h N-NO 22 ° 0 min 0 W/m² 15,0 °C 16,6 °C 1,6 km/h
31.08.2026 04:00 16,4 °C 90 % 1012,8 hPa 0,0 l/m² 0,0 km/h N-NO 22 ° 0 min 0 W/m² 14,8 °C 16,4 °C 3,2 km/h
31.08.2026 03:55 16,4 °C 89 % 1012,9 hPa 0,0 l/m² 0,0 km/h N-NO 22 ° 0 min 0 W/m² 14,6 °C 16,4 °C 1,6 km/h
31.08.2026 03:50 16,4 °C 89 % 1012,9 hPa 0,0 l/m² 0,0 km/h N 0 ° 0 min 0 W/m² 14,6 °C 16,4 °C 0,0 km/h
31.08.2026 03:45 16,4 °C 89 % 1012,9 hPa 0,0 l/m² 0,0 km/h N 0 ° 0 min 0 W/m² 14,6 °C 16,4 °C 0,0 km/h
31.08.2026 03:40 16,4 °C 89 % 1012,9 hPa 0,0 l/m² 0,0 km/h N-NO 22 ° 0 min 0 W/m² 14,6 °C 16,4 °C 1,6 km/h
31.08.2026 03:35 16,5 °C 89 % 1013,0 hPa 0,0 l/m² 0,0 km/h N 0 ° 0 min 0 W/m² 14,7 °C 16,5 °C 0,0 km/h
31.08.2026 03:30 16,5 °C 89 % 1013,0 hPa 0,0 l/m² 0,0 km/h N 0 ° 0 min 0 W/m² 14,7 °C 16,5 °C 0,0 km/h
31.08.2026 03:25 16,6 °C 89 % 1012,9 hPa 0,0 l/m² 0,0 km/h N-NO 22 ° 0 min 0 W/m² 14,8 °C 16,6 °C 3,2 km/h
31.08.2026 03:20 16,6 °C 89 % 1013,0 hPa 0,0 l/m² 0,0 km/h N-NO 22 ° 0 min 0 W/m² 14,8 °C 16,6 °C 3,2 km/h
31.08.2026 03:15 16,6 °C 89 % 1013,1 hPa 0,0 l/m² 0,0 km/h N 0 ° 0 min 0 W/m² 14,8 °C 16,6 °C 0,0 km/h
31.08.2026 03:10 16,7 °C 89 % 1013,0 hPa 0,0 l/m² 0,0 km/h N 0 ° 0 min 0 W/m² 14,9 °C 16,7 °C 0,0 km/h
31.08.2026 03:05 16,7 °C 88 % 1013,1 hPa 0,0 l/m² 0,0 km/h N 0 ° 0 min 0 W/m² 14,7 °C 16,7 °C 0,0 km/h
31.08.2026 03:00 16,8 °C 88 % 1013,1 hPa 0,0 l/m² 0,0 km/h N-NO 22 ° 0 min 0 W/m² 14,8 °C 16,8 °C 4,8 km/h
31.08.2026 02:55 16,8 °C 88 % 1013,1 hPa 0,0 l/m² 0,0 km/h N-NO 22 ° 0 min 0 W/m² 14,8 °C 16,8 °C 4,8 km/h
31.08.2026 02:50 16,9 °C 88 % 1013,1 hPa 0,0 l/m² 0,0 km/h N-NO 22 ° 0 min 0 W/m² 14,9 °C 16,9 °C 4,8 km/h
31.08.2026 02:45 16,9 °C 88 % 1013,2 hPa 0,0 l/m² 0,0 km/h N 0 ° 0 min 0 W/m² 14,9 °C 16,9 °C 0,0 km/h
31.08.2026 02:40 17,0 °C 87 % 1013,2 hPa 0,0 l/m² 0,0 km/h N 0 ° 0 min 0 W/m² 14,8 °C 17,0 °C 0,0 km/h
31.08.2026 02:35 17,1 °C 87 % 1013,2 hPa 0,0 l/m² 0,0 km/h N 0 ° 0 min 0 W/m² 14,9 °C 17,1 °C 0,0 km/h
31.08.2026 02:30 17,2 °C 87 % 1013,3 hPa 0,0 l/m² 0,0 km/h N 0 ° 0 min 0 W/m² 15,0 °C 17,2 °C 0,0 km/h
31.08.2026 02:25 17,2 °C 87 % 1013,2 hPa 0,0 l/m² 0,0 km/h N 0 ° 0 min 0 W/m² 15,0 °C 17,2 °C 0,0 km/h
31.08.2026 02:20 17,3 °C 87 % 1013,3 hPa 0,0 l/m² 0,0 km/h N 0 ° 0 min 0 W/m² 15,1 °C 17,3 °C 0,0 km/h
31.08.2026 02:15 17,4 °C 87 % 1013,4 hPa 0,0 l/m² 0,0 km/h N-NO 22 ° 0 min 0 W/m² 15,2 °C 17,4 °C 1,6 km/h
31.08.2026 02:10 17,4 °C 87 % 1013,4 hPa 0,0 l/m² 0,0 km/h N 0 ° 0 min 0 W/m² 15,2 °C 17,4 °C 0,0 km/h
31.08.2026 02:05 17,4 °C 87 % 1013,3 hPa 0,0 l/m² 0,0 km/h N 0 ° 0 min 0 W/m² 15,2 °C 17,4 °C 0,0 km/h
31.08.2026 02:00 17,5 °C 87 % 1013,3 hPa 0,0 l/m² 1,6 km/h N-NO 22 ° 0 min 0 W/m² 15,3 °C 17,5 °C 6,4 km/h
31.08.2026 01:55 17,6 °C 87 % 1013,4 hPa 0,0 l/m² 0,0 km/h N-NO 22 ° 0 min 0 W/m² 15,4 °C 17,6 °C 4,8 km/h
31.08.2026 01:50 17,6 °C 86 % 1013,4 hPa 0,0 l/m² 0,0 km/h N 0 ° 0 min 0 W/m² 15,2 °C 17,6 °C 0,0 km/h
31.08.2026 01:45 17,8 °C 85 % 1013,5 hPa 0,0 l/m² 0,0 km/h N 0 ° 0 min 0 W/m² 15,2 °C 17,8 °C 0,0 km/h
31.08.2026 01:40 18,0 °C 85 % 1013,5 hPa 0,0 l/m² 0,0 km/h N 0 ° 0 min 0 W/m² 15,4 °C 18,0 °C 0,0 km/h
31.08.2026 01:35 18,0 °C 85 % 1013,4 hPa 0,0 l/m² 0,0 km/h N 0 ° 0 min 0 W/m² 15,4 °C 18,0 °C 0,0 km/h
31.08.2026 01:30 17,9 °C 85 % 1013,6 hPa 0,0 l/m² 0,0 km/h N 0 ° 0 min 0 W/m² 15,3 °C 17,9 °C 0,0 km/h
31.08.2026 01:25 18,3 °C 84 % 1013,5 hPa 0,0 l/m² 0,0 km/h N 0 ° 0 min 0 W/m² 15,5 °C 18,3 °C 0,0 km/h
31.08.2026 01:20 18,6 °C 83 % 1013,5 hPa 0,0 l/m² 0,0 km/h N 0 ° 0 min 0 W/m² 15,7 °C 18,6 °C 0,0 km/h
31.08.2026 01:15 18,9 °C 82 % 1013,5 hPa 0,0 l/m² 0,0 km/h N-NO 22 ° 0 min 0 W/m² 15,8 °C 18,9 °C 1,6 km/h
31.08.2026 01:10 18,8 °C 82 % 1013,5 hPa 0,0 l/m² 0,0 km/h N 0 ° 0 min 0 W/m² 15,7 °C 18,8 °C 0,0 km/h
31.08.2026 01:05 18,4 °C 84 % 1013,5 hPa 0,0 l/m² 4,8 km/h N-NO 22 ° 0 min 0 W/m² 15,6 °C 18,4 °C 6,4 km/h
31.08.2026 01:00 18,5 °C 83 % 1013,5 hPa 0,0 l/m² 3,2 km/h N-NO 22 ° 0 min 0 W/m² 15,6 °C 18,5 °C 6,4 km/h
31.08.2026 00:55 18,7 °C 83 % 1013,5 hPa 0,0 l/m² 3,2 km/h N-NO 22 ° 0 min 0 W/m² 15,8 °C 18,7 °C 8,0 km/h
31.08.2026 00:50 18,7 °C 83 % 1013,5 hPa 0,0 l/m² 3,2 km/h N-NO 22 ° 0 min 0 W/m² 15,8 °C 18,7 °C 6,4 km/h
31.08.2026 00:45 18,7 °C 83 % 1013,6 hPa 0,0 l/m² 3,2 km/h N-NO 22 ° 0 min 0 W/m² 15,8 °C 18,7 °C 4,8 km/h
31.08.2026 00:40 18,9 °C 82 % 1013,6 hPa 0,0 l/m² 3,2 km/h N-NO 22 ° 0 min 0 W/m² 15,8 °C 18,9 °C 6,4 km/h
31.08.2026 00:35 19,2 °C 82 % 1013,7 hPa 0,0 l/m² 3,2 km/h N-NO 22 ° 0 min 0 W/m² 16,0 °C 19,2 °C 6,4 km/h
31.08.2026 00:30 18,9 °C 82 % 1013,7 hPa 0,0 l/m² 1,6 km/h N-NO 22 ° 0 min 0 W/m² 15,8 °C 18,9 °C 6,4 km/h
31.08.2026 00:25 18,6 °C 84 % 1013,7 hPa 0,0 l/m² 3,2 km/h N-NO 22 ° 0 min 0 W/m² 15,8 °C 18,6 °C 6,4 km/h
31.08.2026 00:20 18,7 °C 83 % 1013,7 hPa 0,0 l/m² 3,2 km/h N-NO 22 ° 0 min 0 W/m² 15,8 °C 18,7 °C 6,4 km/h
31.08.2026 00:15 18,8 °C 83 % 1013,7 hPa 0,0 l/m² 3,2 km/h N-NO 22 ° 0 min 0 W/m² 15,8 °C 18,8 °C 6,4 km/h
31.08.2026 00:10 18,8 °C 83 % 1013,8 hPa 0,0 l/m² 4,8 km/h NO 45 ° 0 min 0 W/m² 15,8 °C 18,8 °C 6,4 km/h
31.08.2026 00:05 18,6 °C 84 % 1013,8 hPa 0,0 l/m² 3,2 km/h NO 45 ° 0 min 0 W/m² 15,8 °C 18,6 °C 6,4 km/h
31.08.2026 00:00 18,7 °C 84 % 1013,9 hPa 0,0 l/m² 3,2 km/h NO 45 ° 0 min 0 W/m² 15,9 °C 18,7 °C 4,8 km/h
30.08.2026 23:55 18,8 °C 83 % 1013,8 hPa 0,0 l/m² 0,0 km/h NO 45 ° 0 min 0 W/m² 15,8 °C 18,8 °C 3,2 km/h
30.08.2026 23:50 18,9 °C 83 % 1013,8 hPa 0,0 l/m² 0,0 km/h N 0 ° 0 min 0 W/m² 15,9 °C 18,9 °C 0,0 km/h
30.08.2026 23:45 19,0 °C 83 % 1013,9 hPa 0,0 l/m² 0,0 km/h N 0 ° 0 min 0 W/m² 16,0 °C 19,0 °C 0,0 km/h
30.08.2026 23:40 19,4 °C 81 % 1013,9 hPa 0,0 l/m² 0,0 km/h N 0 ° 0 min 0 W/m² 16,1 °C 19,4 °C 0,0 km/h
30.08.2026 23:35 19,6 °C 80 % 1013,9 hPa 0,0 l/m² 0,0 km/h N 0 ° 0 min 0 W/m² 16,1 °C 19,6 °C 0,0 km/h
30.08.2026 23:30 19,4 °C 81 % 1013,9 hPa 0,0 l/m² 0,0 km/h N 0 ° 0 min 0 W/m² 16,1 °C 19,4 °C 0,0 km/h
30.08.2026 23:25 19,3 °C 82 % 1013,8 hPa 0,0 l/m² 1,6 km/h NO 45 ° 0 min 0 W/m² 16,1 °C 19,3 °C 4,8 km/h
30.08.2026 23:20 18,9 °C 83 % 1013,8 hPa 0,0 l/m² 1,6 km/h NO 45 ° 0 min 0 W/m² 15,9 °C 18,9 °C 4,8 km/h
30.08.2026 23:15 18,7 °C 84 % 1013,8 hPa 0,0 l/m² 1,6 km/h NO 45 ° 0 min 0 W/m² 15,9 °C 18,7 °C 6,4 km/h
30.08.2026 23:10 18,8 °C 84 % 1013,8 hPa 0,0 l/m² 0,0 km/h N 0 ° 0 min 0 W/m² 16,0 °C 18,8 °C 0,0 km/h
30.08.2026 23:05 19,0 °C 83 % 1013,9 hPa 0,0 l/m² 1,6 km/h NO 45 ° 0 min 0 W/m² 16,0 °C 19,0 °C 4,8 km/h
30.08.2026 23:00 18,9 °C 83 % 1013,9 hPa 0,0 l/m² 1,6 km/h NO 45 ° 0 min 0 W/m² 15,9 °C 18,9 °C 6,4 km/h
30.08.2026 22:55 18,6 °C 84 % 1013,9 hPa 0,0 l/m² 0,0 km/h N 0 ° 0 min 0 W/m² 15,8 °C 18,6 °C 0,0 km/h
30.08.2026 22:50 18,6 °C 84 % 1013,9 hPa 0,0 l/m² 0,0 km/h N 0 ° 0 min 0 W/m² 15,8 °C 18,6 °C 0,0 km/h
30.08.2026 22:45 18,6 °C 84 % 1013,9 hPa 0,0 l/m² 0,0 km/h NO 45 ° 0 min 0 W/m² 15,8 °C 18,6 °C 1,6 km/h
30.08.2026 22:40 18,6 °C 85 % 1013,9 hPa 0,0 l/m² 0,0 km/h N 0 ° 0 min 0 W/m² 16,0 °C 18,6 °C 0,0 km/h
30.08.2026 22:35 18,8 °C 84 % 1013,9 hPa 0,0 l/m² 0,0 km/h N 0 ° 0 min 0 W/m² 16,0 °C 18,8 °C 0,0 km/h
30.08.2026 22:30 18,6 °C 85 % 1013,9 hPa 0,0 l/m² 0,0 km/h NO 45 ° 0 min 0 W/m² 16,0 °C 18,6 °C 1,6 km/h
30.08.2026 22:25 18,7 °C 84 % 1013,9 hPa 0,0 l/m² 0,0 km/h NO 45 ° 0 min 0 W/m² 15,9 °C 18,7 °C 1,6 km/h
30.08.2026 22:20 18,9 °C 83 % 1014,0 hPa 0,0 l/m² 1,6 km/h NO 45 ° 0 min 0 W/m² 15,9 °C 18,9 °C 3,2 km/h
30.08.2026 22:15 18,9 °C 83 % 1014,0 hPa 0,0 l/m² 1,6 km/h NO 45 ° 0 min 0 W/m² 15,9 °C 18,9 °C 3,2 km/h
30.08.2026 22:10 19,2 °C 82 % 1014,0 hPa 0,0 l/m² 0,0 km/h NO 45 ° 0 min 0 W/m² 16,0 °C 19,2 °C 3,2 km/h
30.08.2026 22:05 19,3 °C 82 % 1014,0 hPa 0,0 l/m² 1,6 km/h NO 45 ° 0 min 0 W/m² 16,1 °C 19,3 °C 4,8 km/h
30.08.2026 22:00 19,1 °C 82 % 1013,9 hPa 0,0 l/m² 1,6 km/h NO 45 ° 0 min 0 W/m² 16,0 °C 19,1 °C 4,8 km/h
30.08.2026 21:55 19,1 °C 83 % 1014,0 hPa 0,0 l/m² 3,2 km/h NO 45 ° 0 min 0 W/m² 16,1 °C 19,1 °C 4,8 km/h
30.08.2026 21:50 19,1 °C 83 % 1014,0 hPa 0,0 l/m² 3,2 km/h NO 45 ° 0 min 0 W/m² 16,1 °C 19,1 °C 6,4 km/h
30.08.2026 21:45 19,2 °C 83 % 1013,9 hPa 0,0 l/m² 1,6 km/h NO 45 ° 0 min 0 W/m² 16,2 °C 19,2 °C 4,8 km/h
30.08.2026 21:40 19,3 °C 82 % 1013,9 hPa 0,0 l/m² 3,2 km/h NO 45 ° 0 min 0 W/m² 16,1 °C 19,3 °C 4,8 km/h
30.08.2026 21:35 19,6 °C 81 % 1013,9 hPa 0,0 l/m² 1,6 km/h NO 45 ° 0 min 0 W/m² 16,2 °C 19,6 °C 4,8 km/h
30.08.2026 21:30 19,8 °C 81 % 1013,9 hPa 0,0 l/m² 3,2 km/h NO 45 ° 0 min 0 W/m² 16,4 °C 19,8 °C 6,4 km/h
30.08.2026 21:25 19,7 °C 81 % 1014,0 hPa 0,0 l/m² 3,2 km/h NO 45 ° 0 min 0 W/m² 16,3 °C 19,7 °C 6,4 km/h
30.08.2026 21:20 19,8 °C 81 % 1014,0 hPa 0,0 l/m² 3,2 km/h NO 45 ° 0 min 0 W/m² 16,4 °C 19,8 °C 4,8 km/h
30.08.2026 21:15 19,9 °C 81 % 1013,9 hPa 0,0 l/m² 3,2 km/h NO 45 ° 0 min 0 W/m² 16,5 °C 19,9 °C 6,4 km/h
30.08.2026 21:10 20,0 °C 81 % 1013,9 hPa 0,0 l/m² 3,2 km/h NO 45 ° 0 min 0 W/m² 16,6 °C 20,0 °C 8,0 km/h
30.08.2026 21:05 20,0 °C 81 % 1013,9 hPa 0,0 l/m² 3,2 km/h NO 45 ° 0 min 0 W/m² 16,6 °C 20,0 °C 6,4 km/h
30.08.2026 21:00 20,2 °C 80 % 1014,1 hPa 0,0 l/m² 1,6 km/h N-NO 22 ° 0 min 0 W/m² 16,6 °C 20,2 °C 4,8 km/h
30.08.2026 20:55 20,6 °C 79 % 1014,1 hPa 0,0 l/m² 1,6 km/h N-NO 22 ° 0 min 0 W/m² 16,8 °C 20,6 °C 4,8 km/h
30.08.2026 20:50 20,6 °C 79 % 1014,0 hPa 0,0 l/m² 3,2 km/h N-NO 22 ° 0 min 0 W/m² 16,8 °C 20,6 °C 6,4 km/h
30.08.2026 20:45 20,8 °C 79 % 1013,9 hPa 0,0 l/m² 3,2 km/h N-NO 22 ° 0 min 0 W/m² 17,0 °C 20,8 °C 4,8 km/h
30.08.2026 20:40 20,9 °C 78 % 1013,7 hPa 0,0 l/m² 1,6 km/h N-NO 22 ° 0 min 0 W/m² 16,9 °C 20,9 °C 4,8 km/h
30.08.2026 20:35 21,0 °C 78 % 1013,5 hPa 0,0 l/m² 1,6 km/h N-NO 22 ° 0 min 0 W/m² 17,0 °C 21,0 °C 4,8 km/h
30.08.2026 20:30 21,2 °C 77 % 1013,5 hPa 0,0 l/m² 3,2 km/h N-NO 22 ° 0 min 0 W/m² 17,0 °C 21,2 °C 4,8 km/h
30.08.2026 20:25 21,4 °C 76 % 1013,5 hPa 0,0 l/m² 1,6 km/h N-NO 22 ° 0 min 0 W/m² 17,0 °C 21,4 °C 6,4 km/h
30.08.2026 20:20 21,5 °C 75 % 1013,4 hPa 0,0 l/m² 3,2 km/h N-NO 22 ° 0 min 0 W/m² 16,9 °C 21,5 °C 6,4 km/h
30.08.2026 20:15 21,8 °C 74 % 1013,4 hPa 0,0 l/m² 1,6 km/h N-NW 337 ° 0 min 0 W/m² 17,0 °C 21,8 °C 4,8 km/h
30.08.2026 20:10 22,2 °C 73 % 1013,4 hPa 0,0 l/m² 3,2 km/h W-SW 247 ° 0 min 0 W/m² 17,1 °C 22,2 °C 6,4 km/h
30.08.2026 20:05 22,5 °C 72 % 1013,4 hPa 0,0 l/m² 1,6 km/h SW 225 ° 0 min 0 W/m² 17,2 °C 22,5 °C 4,8 km/h
30.08.2026 20:00 22,7 °C 71 % 1013,3 hPa 0,0 l/m² 1,6 km/h SW 225 ° 0 min 0 W/m² 17,2 °C 22,7 °C 3,2 km/h
30.08.2026 19:55 23,1 °C 69 % 1013,2 hPa 0,0 l/m² 1,6 km/h SW 225 ° 0 min 5 W/m² 17,1 °C 23,1 °C 4,8 km/h
30.08.2026 19:50 23,4 °C 69 % 1013,1 hPa 0,0 l/m² 0,0 km/h N 0 ° 0 min 11 W/m² 17,4 °C 23,4 °C 0,0 km/h
30.08.2026 19:45 23,7 °C 64 % 1013,1 hPa 0,0 l/m² 0,0 km/h SW 225 ° 5 min 19 W/m² 16,5 °C 23,7 °C 3,2 km/h
30.08.2026 19:40 23,6 °C 65 % 1013,1 hPa 0,0 l/m² 1,6 km/h SW 225 ° 5 min 25 W/m² 16,6 °C 23,6 °C 3,2 km/h
30.08.2026 19:35 23,8 °C 65 % 1013,1 hPa 0,0 l/m² 3,2 km/h SW 225 ° 5 min 30 W/m² 16,8 °C 23,8 °C 4,8 km/h
30.08.2026 19:30 23,9 °C 64 % 1012,9 hPa 0,0 l/m² 1,6 km/h SW 225 ° 0 min 35 W/m² 16,7 °C 23,9 °C 3,2 km/h
30.08.2026 19:25 23,9 °C 64 % 1012,9 hPa 0,0 l/m² 3,2 km/h SW 225 ° 0 min 40 W/m² 16,7 °C 23,9 °C 3,2 km/h
30.08.2026 19:20 24,3 °C 64 % 1013,0 hPa 0,0 l/m² 3,2 km/h SW 225 ° 0 min 44 W/m² 17,0 °C 24,3 °C 4,8 km/h
30.08.2026 19:15 24,6 °C 62 % 1012,9 hPa 0,0 l/m² 1,6 km/h SW 225 ° 0 min 42 W/m² 16,8 °C 24,6 °C 3,2 km/h
30.08.2026 19:10 24,6 °C 63 % 1013,0 hPa 0,0 l/m² 3,2 km/h SW 225 ° 0 min 49 W/m² 17,1 °C 24,6 °C 4,8 km/h
30.08.2026 19:05 24,9 °C 63 % 1013,1 hPa 0,0 l/m² 3,2 km/h SW 225 ° 0 min 60 W/m² 17,4 °C 24,9 °C 4,8 km/h
30.08.2026 19:00 25,2 °C 60 % 1013,0 hPa 0,0 l/m² 3,2 km/h SW 225 ° 5 min 97 W/m² 16,9 °C 25,2 °C 4,8 km/h
30.08.2026 18:55 25,2 °C 60 % 1013,0 hPa 0,0 l/m² 1,6 km/h SW 225 ° 0 min 95 W/m² 16,9 °C 25,2 °C 4,8 km/h
30.08.2026 18:50 25,2 °C 61 % 1013,0 hPa 0,0 l/m² 1,6 km/h SW 225 ° 0 min 109 W/m² 17,1 °C 25,2 °C 3,2 km/h
30.08.2026 18:45 25,4 °C 61 % 1012,9 hPa 0,0 l/m² 1,6 km/h SW 225 ° 0 min 98 W/m² 17,3 °C 25,4 °C 3,2 km/h
30.08.2026 18:40 25,3 °C 60 % 1012,9 hPa 0,0 l/m² 1,6 km/h SW 225 ° 0 min 118 W/m² 17,0 °C 25,3 °C 3,2 km/h
30.08.2026 18:35 25,4 °C 59 % 1012,9 hPa 0,0 l/m² 1,6 km/h SW 225 ° 0 min 100 W/m² 16,8 °C 25,4 °C 6,4 km/h
30.08.2026 18:30 25,5 °C 59 % 1013,0 hPa 0,0 l/m² 1,6 km/h SW 225 ° 0 min 98 W/m² 16,9 °C 25,5 °C 3,2 km/h
30.08.2026 18:25 25,4 °C 59 % 1012,9 hPa 0,0 l/m² 1,6 km/h SW 225 ° 0 min 93 W/m² 16,8 °C 25,4 °C 6,4 km/h
30.08.2026 18:20 25,7 °C 60 % 1013,0 hPa 0,0 l/m² 3,2 km/h SW 225 ° 0 min 105 W/m² 17,3 °C 25,7 °C 8,0 km/h
30.08.2026 18:15 25,9 °C 58 % 1013,0 hPa 0,0 l/m² 1,6 km/h SW 225 ° 0 min 111 W/m² 17,0 °C 25,9 °C 4,8 km/h
30.08.2026 18:10 26,1 °C 57 % 1013,0 hPa 0,0 l/m² 1,6 km/h SW 225 ° 0 min 132 W/m² 16,9 °C 26,1 °C 6,4 km/h
30.08.2026 18:05 26,0 °C 57 % 1013,0 hPa 0,0 l/m² 3,2 km/h S-SW 202 ° 0 min 142 W/m² 16,8 °C 26,0 °C 6,4 km/h
30.08.2026 18:00 26,0 °C 57 % 1013,1 hPa 0,0 l/m² 6,4 km/h S-SW 202 ° 0 min 181 W/m² 16,8 °C 26,0 °C 12,9 km/h
30.08.2026 17:55 26,3 °C 56 % 1013,2 hPa 0,0 l/m² 4,8 km/h W-SW 247 ° 0 min 186 W/m² 16,8 °C 26,3 °C 11,3 km/h
30.08.2026 17:50 26,6 °C 56 % 1013,2 hPa 0,0 l/m² 1,6 km/h W-SW 247 ° 5 min 225 W/m² 17,1 °C 26,6 °C 6,4 km/h
30.08.2026 17:45 26,3 °C 57 % 1013,2 hPa 0,0 l/m² 1,6 km/h W 270 ° 0 min 232 W/m² 17,1 °C 26,3 °C 6,4 km/h
30.08.2026 17:40 26,1 °C 58 % 1013,2 hPa 0,0 l/m² 3,2 km/h SW 225 ° 0 min 178 W/m² 17,2 °C 26,1 °C 9,7 km/h
30.08.2026 17:35 26,4 °C 56 % 1013,2 hPa 0,0 l/m² 3,2 km/h W 270 ° 0 min 181 W/m² 16,9 °C 26,4 °C 6,4 km/h
30.08.2026 17:30 26,7 °C 56 % 1013,3 hPa 0,0 l/m² 4,8 km/h S 180 ° 5 min 339 W/m² 17,2 °C 26,7 °C 11,3 km/h
30.08.2026 17:25 26,9 °C 58 % 1013,2 hPa 0,0 l/m² 4,8 km/h S 180 ° 5 min 318 W/m² 17,9 °C 26,9 °C 9,7 km/h
30.08.2026 17:20 26,3 °C 57 % 1013,2 hPa 0,0 l/m² 6,4 km/h SW 225 ° 5 min 404 W/m² 17,1 °C 26,3 °C 14,5 km/h
30.08.2026 17:15 26,1 °C 58 % 1013,3 hPa 0,0 l/m² 3,2 km/h SW 225 ° 5 min 415 W/m² 17,2 °C 26,1 °C 8,0 km/h
30.08.2026 17:10 26,1 °C 58 % 1013,3 hPa 0,0 l/m² 6,4 km/h S-SW 202 ° 0 min 204 W/m² 17,2 °C 26,1 °C 11,3 km/h
30.08.2026 17:05 26,3 °C 57 % 1013,3 hPa 0,0 l/m² 4,8 km/h S 180 ° 5 min 369 W/m² 17,1 °C 26,3 °C 9,7 km/h
30.08.2026 17:00 26,7 °C 55 % 1013,3 hPa 0,0 l/m² 3,2 km/h W-SW 247 ° 5 min 387 W/m² 16,9 °C 26,7 °C 8,0 km/h
30.08.2026 16:55 26,1 °C 57 % 1013,4 hPa 0,0 l/m² 1,6 km/h W-SW 247 ° 0 min 295 W/m² 16,9 °C 26,1 °C 4,8 km/h
30.08.2026 16:50 26,0 °C 59 % 1013,4 hPa 0,0 l/m² 4,8 km/h W-SW 247 ° 0 min 269 W/m² 17,4 °C 26,0 °C 11,3 km/h
30.08.2026 16:45 26,2 °C 58 % 1013,5 hPa 0,0 l/m² 4,8 km/h W-NW 292 ° 0 min 220 W/m² 17,3 °C 26,2 °C 12,9 km/h
30.08.2026 16:40 26,3 °C 57 % 1013,5 hPa 0,0 l/m² 3,2 km/h W-SW 247 ° 0 min 244 W/m² 17,1 °C 26,3 °C 11,3 km/h
30.08.2026 16:35 26,3 °C 57 % 1013,5 hPa 0,0 l/m² 3,2 km/h S-SW 202 ° 0 min 206 W/m² 17,1 °C 26,3 °C 11,3 km/h
30.08.2026 16:30 26,9 °C 57 % 1013,6 hPa 0,0 l/m² 1,6 km/h W-SW 247 ° 0 min 156 W/m² 17,6 °C 26,9 °C 4,8 km/h
30.08.2026 16:25 27,0 °C 57 % 1013,6 hPa 0,0 l/m² 1,6 km/h W-SW 247 ° 5 min 522 W/m² 17,7 °C 27,0 °C 4,8 km/h
30.08.2026 16:20 26,2 °C 56 % 1013,5 hPa 0,0 l/m² 6,4 km/h W-SW 247 ° 5 min 599 W/m² 16,7 °C 26,2 °C 12,9 km/h
30.08.2026 16:15 26,2 °C 58 % 1013,6 hPa 0,0 l/m² 3,2 km/h SO 135 ° 0 min 243 W/m² 17,3 °C 26,2 °C 6,4 km/h
30.08.2026 16:10 26,1 °C 57 % 1013,6 hPa 0,0 l/m² 4,8 km/h S-SW 202 ° 0 min 221 W/m² 16,9 °C 26,1 °C 9,7 km/h
30.08.2026 16:05 26,2 °C 58 % 1013,6 hPa 0,0 l/m² 6,4 km/h S-SW 202 ° 0 min 165 W/m² 17,3 °C 26,2 °C 12,9 km/h
30.08.2026 16:00 26,9 °C 55 % 1013,6 hPa 0,0 l/m² 6,4 km/h W 270 ° 5 min 710 W/m² 17,1 °C 26,9 °C 14,5 km/h
30.08.2026 15:55 26,4 °C 57 % 1013,6 hPa 0,0 l/m² 6,4 km/h SW 225 ° 0 min 297 W/m² 17,2 °C 26,4 °C 14,5 km/h
30.08.2026 15:50 26,2 °C 56 % 1013,5 hPa 0,0 l/m² 9,7 km/h S-SW 202 ° 5 min 800 W/m² 16,7 °C 25,5 °C 17,7 km/h
30.08.2026 15:45 26,9 °C 55 % 1013,5 hPa 0,0 l/m² 6,4 km/h W-NW 292 ° 0 min 301 W/m² 17,1 °C 26,9 °C 17,7 km/h
30.08.2026 15:40 26,9 °C 56 % 1013,6 hPa 0,0 l/m² 6,4 km/h S-SW 202 ° 5 min 448 W/m² 17,4 °C 26,9 °C 20,9 km/h
30.08.2026 15:35 26,7 °C 56 % 1013,6 hPa 0,0 l/m² 9,7 km/h S-SW 202 ° 0 min 390 W/m² 17,2 °C 26,1 °C 20,9 km/h
30.08.2026 15:30 26,8 °C 56 % 1013,8 hPa 0,0 l/m² 9,7 km/h S-SW 202 ° 5 min 793 W/m² 17,3 °C 26,2 °C 22,5 km/h
30.08.2026 15:25 26,7 °C 56 % 1013,8 hPa 0,0 l/m² 9,7 km/h S-SW 202 ° 5 min 601 W/m² 17,2 °C 26,1 °C 19,3 km/h
30.08.2026 15:20 26,7 °C 54 % 1014,0 hPa 0,0 l/m² 12,9 km/h S 180 ° 5 min 601 W/m² 16,6 °C 25,6 °C 27,4 km/h
30.08.2026 15:15 25,9 °C 57 % 1013,8 hPa 0,0 l/m² 11,3 km/h S 180 ° 5 min 459 W/m² 16,7 °C 24,9 °C 22,5 km/h
30.08.2026 15:10 26,4 °C 55 % 1014,0 hPa 0,0 l/m² 14,5 km/h S-SW 202 ° 5 min 819 W/m² 16,6 °C 25,1 °C 27,4 km/h
30.08.2026 15:05 26,8 °C 54 % 1013,9 hPa 0,0 l/m² 11,3 km/h S 180 ° 5 min 812 W/m² 16,7 °C 26,0 °C 24,1 km/h
30.08.2026 15:00 26,7 °C 53 % 1014,0 hPa 0,0 l/m² 11,3 km/h S-SW 202 ° 5 min 814 W/m² 16,3 °C 25,8 °C 24,1 km/h
_ Min-Zeit 03:35 15:00 05:35 - 19:45 - - - - 03:40 03:40 19:50
Minimum _ 16,4 °C 53 % 1011,9 hPa - 0,0 km/h - - - - 14,6 °C 16,4 °C 0,0 km/h
_ Max-Zeit 15:00 09:40 10:30 06:15 15:10 - - 15:00 11:55 11:50 16:25 15:10
Maximum _ 27,2 °C 98 % 1015,9 hPa 0,8 l/m² 14,5 km/h
S-SW
- - 5 min 970 W/m² 18,5 °C 27,0 °C 27,4 km/h
S
Durchschnitt _ 20,8 °C 78 % 1014,0 hPa #4,0 l/m² 3,9 km/h SW - #3:15 h 415 W/m² 16,4 °C 20,6 °C 8,9 km/h